Tracking 30306 objects as of 24-Apr-2025
HD Live streaming from Space Station
objects crossing your sky now

THORAD DELTA 1 DEB

Track THORAD DELTA 1 DEB now!
10-day predictions


NORAD ID: 8151
Int'l Code: 1974-089R
Perigee: 1,083.3 km
Apogee: 1,604.3 km
Inclination: 101.8 °
Period: 112.4 minutes
Semi major axis: 7714 km
RCS: 0.0604 m2 (small)
Launch date: November 15, 1974
Source: United States (US)
Launch site: AIR FORCE WESTERN TEST RANGE (AFWTR)

Note: This is SATELLITE DEBRIS
Your satellite tracking list
Your tracking list is empty




NASA's NSSDC Master Catalog

Two Line Element Set (TLE):
1 08151U 74089R   25113.12949752  .00000145  00000-0  65817-3 0  9994
2 08151 101.7652 205.1375 0337688 179.5301 258.3013 12.81200756354997
Source of the keplerian elements: AFSPC